Time,TemperatureF,DewpointF,PressureIn,WindDirection,WindDirectionDegrees,WindSpeedMPH,WindSpeedGustMPH,Humidity,HourlyPrecipIn,Conditions,Clouds,dailyrainin,SoftwareType,DateUTC
2013-03-07 00:03:00,28.0,23.8,30.18,East,90,0.0,-999.0,84,-99.99,,,0.00,Acu-Link.com,2013-03-07 06:03:00,
2013-03-07 00:18:00,28.2,24.3,30.18,East,90,0.0,-999.0,85,-99.99,,,0.00,Acu-Link.com,2013-03-07 06:18:00,
2013-03-07 00:33:00,27.5,23.3,30.19,East,90,0.0,-999.0,84,-99.99,,,0.00,Acu-Link.com,2013-03-07 06:33:00,
2013-03-07 00:48:00,27.3,23.1,30.19,East,90,0.0,-999.0,84,-99.99,,,0.00,Acu-Link.com,2013-03-07 06:48:00,
2013-03-07 01:04:00,27.3,23.4,30.17,East,90,0.0,-999.0,85,-99.99,,,0.00,Acu-Link.com,2013-03-07 07:04:00,
2013-03-07 01:19:00,28.9,25.5,30.19,East,90,0.0,-999.0,87,-99.99,,,0.00,Acu-Link.com,2013-03-07 07:19:00,
2013-03-07 01:34:00,28.4,25.0,30.18,East,90,0.0,-999.0,87,-99.99,,,0.00,Acu-Link.com,2013-03-07 07:34:00,
2013-03-07 01:49:00,29.1,25.7,30.17,East,90,0.0,-999.0,87,-99.99,,,0.00,Acu-Link.com,2013-03-07 07:49:00,
2013-03-07 02:04:00,29.1,25.7,30.19,East,90,0.0,-999.0,87,-99.99,,,0.00,Acu-Link.com,2013-03-07 08:04:00,
2013-03-07 02:19:00,28.9,25.2,30.19,East,90,0.0,-999.0,86,-99.99,,,0.00,Acu-Link.com,2013-03-07 08:19:00,
2013-03-07 02:34:00,28.9,25.2,30.19,East,90,0.0,-999.0,86,-99.99,,,0.00,Acu-Link.com,2013-03-07 08:34:00,
2013-03-07 02:49:00,28.9,25.2,30.19,East,90,0.0,-999.0,86,-99.99,,,0.00,Acu-Link.com,2013-03-07 08:49:00,
2013-03-07 03:04:00,29.1,25.7,30.20,East,90,0.0,-999.0,87,-99.99,,,0.00,Acu-Link.com,2013-03-07 09:04:00,
2013-03-07 03:19:00,29.3,25.9,30.20,East,90,0.0,-999.0,87,-99.99,,,0.00,Acu-Link.com,2013-03-07 09:19:00,
2013-03-07 03:35:00,29.5,26.1,30.19,East,90,0.0,-999.0,87,-99.99,,,0.00,Acu-Link.com,2013-03-07 09:35:00,
2013-03-07 03:50:00,29.8,26.4,30.19,East,90,0.0,-999.0,87,-99.99,,,0.00,Acu-Link.com,2013-03-07 09:50:00,
2013-03-07 04:05:00,29.7,26.3,30.20,East,90,0.0,-999.0,87,-99.99,,,0.00,Acu-Link.com,2013-03-07 10:05:00,
2013-03-07 04:20:00,29.7,25.8,30.20,East,90,0.0,-999.0,85,-99.99,,,0.00,Acu-Link.com,2013-03-07 10:20:00,
2013-03-07 04:35:00,28.8,25.2,30.21,East,90,1.7,-999.0,86,-99.99,,,0.00,Acu-Link.com,2013-03-07 10:35:00,
2013-03-07 04:50:00,29.1,24.9,30.22,East,90,0.0,-999.0,84,-99.99,,,0.00,Acu-Link.com,2013-03-07 10:50:00,
2013-03-07 05:05:00,29.3,25.1,30.22,East,90,1.7,-999.0,84,-99.99,,,0.00,Acu-Link.com,2013-03-07 11:05:00,
2013-03-07 05:20:00,29.7,25.2,30.22,East,90,0.0,-999.0,83,-99.99,,,0.00,Acu-Link.com,2013-03-07 11:20:00,
2013-03-07 05:35:00,30.0,25.2,30.23,East,90,0.0,-999.0,82,-99.99,,,0.00,Acu-Link.com,2013-03-07 11:35:00,
2013-03-07 05:51:00,30.0,25.2,30.23,East,90,0.0,-999.0,82,-99.99,,,0.00,Acu-Link.com,2013-03-07 11:51:00,
2013-03-07 06:06:00,30.2,25.1,30.23,East,90,0.0,-999.0,81,-99.99,,,0.00,Acu-Link.com,2013-03-07 12:06:00,
2013-03-07 06:21:00,30.6,25.2,30.24,East,90,0.0,-999.0,80,-99.99,,,0.00,Acu-Link.com,2013-03-07 12:21:00,
2013-03-07 06:36:00,30.7,25.0,30.22,East,90,0.0,-999.0,79,-99.99,,,0.00,Acu-Link.com,2013-03-07 12:36:00,
2013-03-07 06:51:00,31.1,25.4,30.23,NE,45,0.0,-999.0,79,-99.99,,,0.00,Acu-Link.com,2013-03-07 12:51:00,
2013-03-07 07:06:00,31.8,25.4,30.24,NE,45,3.7,-999.0,77,-99.99,,,0.00,Acu-Link.com,2013-03-07 13:06:00,
2013-03-07 07:21:00,32.4,25.7,30.24,SE,135,2.2,-999.0,76,-99.99,,,0.00,Acu-Link.com,2013-03-07 13:21:00,
2013-03-07 07:36:00,33.1,25.4,30.24,SE,135,4.2,-999.0,73,-99.99,,,0.00,Acu-Link.com,2013-03-07 13:36:00,
2013-03-07 07:51:00,34.0,26.3,30.24,SE,135,2.2,-999.0,73,-99.99,,,0.00,Acu-Link.com,2013-03-07 13:51:00,
2013-03-07 08:07:00,35.2,26.8,30.25,SE,135,1.1,-999.0,71,-99.99,,,0.00,Acu-Link.com,2013-03-07 14:07:00,
2013-03-07 08:22:00,36.1,26.2,30.26,SE,135,1.1,-999.0,67,-99.99,,,0.00,Acu-Link.com,2013-03-07 14:22:00,
2013-03-07 08:37:00,37.0,26.7,30.26,NE,45,3.7,-999.0,66,-99.99,,,0.00,Acu-Link.com,2013-03-07 14:37:00,
2013-03-07 08:52:00,36.5,26.2,30.26,NE,45,1.7,-999.0,66,-99.99,,,0.00,Acu-Link.com,2013-03-07 14:52:00,
2013-03-07 09:07:00,39.4,27.9,30.26,NNW,337,3.7,-999.0,63,-99.99,,,0.00,Acu-Link.com,2013-03-07 15:07:00,
2013-03-07 09:22:00,41.4,27.7,30.26,SE,135,2.2,-999.0,58,-99.99,,,0.00,Acu-Link.com,2013-03-07 15:22:00,
2013-03-07 09:37:00,42.4,27.8,30.25,SSE,157,5.3,-999.0,56,-99.99,,,0.00,Acu-Link.com,2013-03-07 15:37:00,
2013-03-07 09:52:00,41.7,28.0,30.25,ESE,112,2.2,-999.0,58,-99.99,,,0.00,Acu-Link.com,2013-03-07 15:52:00,
2013-03-07 10:07:00,44.4,28.4,30.26,NNW,337,4.2,-999.0,53,-99.99,,,0.00,Acu-Link.com,2013-03-07 16:07:00,
2013-03-07 10:23:00,44.2,28.2,30.27,ESE,112,4.2,-999.0,53,-99.99,,,0.00,Acu-Link.com,2013-03-07 16:23:00,
2013-03-07 10:38:00,47.5,29.8,30.26,NNE,22,2.7,-999.0,50,-99.99,,,0.00,Acu-Link.com,2013-03-07 16:38:00,
2013-03-07 10:53:00,45.7,28.6,30.27,ESE,112,2.2,-999.0,51,-99.99,,,0.00,Acu-Link.com,2013-03-07 16:53:00,
2013-03-07 11:08:00,48.9,30.6,30.26,NW,315,2.7,-999.0,49,-99.99,,,0.00,Acu-Link.com,2013-03-07 17:08:00,
2013-03-07 11:23:00,48.9,29.0,30.26,NNE,22,4.7,-999.0,46,-99.99,,,0.00,Acu-Link.com,2013-03-07 17:23:00,
2013-03-07 11:38:00,49.6,29.7,30.25,NE,45,6.8,-999.0,46,-99.99,,,0.00,Acu-Link.com,2013-03-07 17:38:00,
2013-03-07 11:53:00,50.2,29.1,30.25,NNE,22,3.2,-999.0,44,-99.99,,,0.00,Acu-Link.com,2013-03-07 17:53:00,
2013-03-07 12:23:00,50.9,30.3,30.23,ESE,112,3.2,-999.0,45,-99.99,,,0.00,Acu-Link.com,2013-03-07 18:23:00,
2013-03-07 12:38:00,51.3,29.6,30.21,NNE,22,3.7,-999.0,43,-99.99,,,0.00,Acu-Link.com,2013-03-07 18:38:00,
2013-03-07 12:54:00,52.7,29.1,30.21,West,270,5.3,-999.0,40,-99.99,,,0.00,Acu-Link.com,2013-03-07 18:54:00,
2013-03-07 13:09:00,52.7,29.7,30.20,ENE,67,3.7,-999.0,41,-99.99,,,0.00,Acu-Link.com,2013-03-07 19:09:00,
2013-03-07 13:24:00,53.2,29.5,30.20,WNW,292,2.7,-999.0,40,-99.99,,,0.00,Acu-Link.com,2013-03-07 19:24:00,
2013-03-07 13:39:00,53.2,28.9,30.19,WNW,292,4.7,-999.0,39,-99.99,,,0.00,Acu-Link.com,2013-03-07 19:39:00,
2013-03-07 13:54:00,53.4,28.4,30.19,SE,135,2.7,-999.0,38,-99.99,,,0.00,Acu-Link.com,2013-03-07 19:54:00,
2013-03-07 14:09:00,54.3,28.6,30.17,East,90,4.7,-999.0,37,-99.99,,,0.00,Acu-Link.com,2013-03-07 20:09:00,
2013-03-07 14:24:00,53.8,28.8,30.17,South,180,2.2,-999.0,38,-99.99,,,0.00,Acu-Link.com,2013-03-07 20:24:00,
2013-03-07 14:39:00,54.9,30.4,30.17,East,90,1.7,-999.0,39,-99.99,,,0.00,Acu-Link.com,2013-03-07 20:39:00,
2013-03-07 14:54:00,54.0,29.6,30.17,SSE,157,4.7,-999.0,39,-99.99,,,0.00,Acu-Link.com,2013-03-07 20:54:00,
2013-03-07 15:10:00,54.5,30.1,30.17,NNE,22,3.7,-999.0,39,-99.99,,,0.00,Acu-Link.com,2013-03-07 21:10:00,
2013-03-07 15:25:00,54.7,30.2,30.16,East,90,3.7,-999.0,39,-99.99,,,0.00,Acu-Link.com,2013-03-07 21:25:00,
2013-03-07 15:40:00,54.0,30.2,30.17,NE,45,3.7,-999.0,40,-99.99,,,0.00,Acu-Link.com,2013-03-07 21:40:00,
2013-03-07 15:55:00,53.6,29.9,30.16,ENE,67,2.7,-999.0,40,-99.99,,,0.00,Acu-Link.com,2013-03-07 21:55:00,
2013-03-07 16:10:00,53.6,30.5,30.15,SSE,157,2.7,-999.0,41,-99.99,,,0.00,Acu-Link.com,2013-03-07 22:10:00,
2013-03-07 16:25:00,53.4,30.3,30.16,ENE,67,4.2,-999.0,41,-99.99,,,0.00,Acu-Link.com,2013-03-07 22:25:00,
2013-03-07 16:40:00,52.7,30.3,30.16,WSW,247,1.7,-999.0,42,-99.99,,,0.00,Acu-Link.com,2013-03-07 22:40:00,
2013-03-07 16:55:00,53.8,30.1,30.16,West,270,2.7,-999.0,40,-99.99,,,0.00,Acu-Link.com,2013-03-07 22:55:00,
2013-03-07 17:10:00,52.2,29.2,30.16,NNE,22,3.2,-999.0,41,-99.99,,,0.00,Acu-Link.com,2013-03-07 23:10:00,
2013-03-07 17:26:00,50.5,30.0,30.16,NNE,22,3.2,-999.0,45,-99.99,,,0.00,Acu-Link.com,2013-03-07 23:26:00,
2013-03-07 17:41:00,49.5,29.6,30.15,ENE,67,2.2,-999.0,46,-99.99,,,0.00,Acu-Link.com,2013-03-07 23:41:00,
2013-03-07 17:56:00,48.4,29.6,30.16,NNE,22,2.2,-999.0,48,-99.99,,,0.00,Acu-Link.com,2013-03-07 23:56:00,
2013-03-07 18:11:00,47.1,28.9,30.16,NNE,22,0.0,-999.0,49,-99.99,,,0.00,Acu-Link.com,2013-03-08 00:11:00,
2013-03-07 18:26:00,45.9,28.8,30.15,NNE,22,0.0,-999.0,51,-99.99,,,0.00,Acu-Link.com,2013-03-08 00:26:00,
2013-03-07 18:41:00,45.0,29.4,30.15,NE,45,1.1,-999.0,54,-99.99,,,0.00,Acu-Link.com,2013-03-08 00:41:00,
2013-03-07 18:56:00,43.5,29.3,30.15,NE,45,0.0,-999.0,57,-99.99,,,0.00,Acu-Link.com,2013-03-08 00:56:00,
2013-03-07 19:11:00,42.3,29.0,30.16,NE,45,0.0,-999.0,59,-99.99,,,0.00,Acu-Link.com,2013-03-08 01:11:00,
2013-03-07 19:26:00,41.2,28.8,30.16,NE,45,0.0,-999.0,61,-99.99,,,0.00,Acu-Link.com,2013-03-08 01:26:00,
2013-03-07 19:42:00,40.6,29.0,30.15,NE,45,0.0,-999.0,63,-99.99,,,0.00,Acu-Link.com,2013-03-08 01:42:00,
2013-03-07 19:57:00,40.1,28.5,30.15,NE,45,0.0,-999.0,63,-99.99,,,0.00,Acu-Link.com,2013-03-08 01:57:00,
2013-03-07 20:27:00,39.7,28.5,30.15,NE,45,0.0,-999.0,64,-99.99,,,0.00,Acu-Link.com,2013-03-08 02:27:00,
2013-03-07 20:42:00,39.6,28.4,30.14,ENE,67,0.0,-999.0,64,-99.99,,,0.00,Acu-Link.com,2013-03-08 02:42:00,
2013-03-07 20:57:00,38.7,28.3,30.15,ENE,67,0.0,-999.0,66,-99.99,,,0.00,Acu-Link.com,2013-03-08 02:57:00,
2013-03-07 21:12:00,38.3,28.0,30.15,ENE,67,0.0,-999.0,66,-99.99,,,0.00,Acu-Link.com,2013-03-08 03:12:00,
2013-03-07 21:27:00,37.6,27.7,30.16,ENE,67,0.0,-999.0,67,-99.99,,,0.00,Acu-Link.com,2013-03-08 03:27:00,
2013-03-07 21:42:00,36.1,26.9,30.16,ENE,67,0.0,-999.0,69,-99.99,,,0.00,Acu-Link.com,2013-03-08 03:42:00,
2013-03-07 21:58:00,35.1,27.3,30.15,ENE,67,0.0,-999.0,73,-99.99,,,0.00,Acu-Link.com,2013-03-08 03:58:00,
2013-03-07 22:13:00,34.0,27.9,30.15,ENE,67,0.0,-999.0,78,-99.99,,,0.00,Acu-Link.com,2013-03-08 04:13:00,
2013-03-07 22:28:00,33.6,27.5,30.16,ENE,67,0.0,-999.0,78,-99.99,,,0.00,Acu-Link.com,2013-03-08 04:28:00,
2013-03-07 22:43:00,33.1,27.0,30.16,ENE,67,0.0,-999.0,78,-99.99,,,0.00,Acu-Link.com,2013-03-08 04:43:00,
2013-03-07 23:13:00,32.2,26.7,30.16,ENE,67,0.0,-999.0,80,-99.99,,,0.00,Acu-Link.com,2013-03-08 05:13:00,
2013-03-07 23:28:00,31.6,26.5,30.16,ENE,67,0.0,-999.0,81,-99.99,,,0.00,Acu-Link.com,2013-03-08 05:28:00,
2013-03-07 23:43:00,31.1,26.3,30.16,ENE,67,0.0,-999.0,82,-99.99,,,0.00,Acu-Link.com,2013-03-08 05:43:00,
2013-03-07 23:58:00,31.1,26.0,30.16,ENE,67,0.0,-999.0,81,-99.99,,,0.00,Acu-Link.com,2013-03-08 05:58:00,